DW7259 Weather Reports


Display with metric or nautical units.
time (UTC)temp
F
wind
direction
speed
MPH
gust
MPH
rain 1hr
in
rain 24hr
in
rain mn
in
humidity
%
barometer
mb
20260905200044 73 360 8.0 20.0 0.00 0.00 0.00 30 1007.7
20260905194542 70 360 2.0 11.0 0.00 0.00 0.00 37 1007.9
20260905193053 70 360 2.0 5.0 0.00 0.00 0.00 37 1008.1
20260905191541 69 360 2.0 6.0 0.00 0.00 0.00 39 1008.5
20260905190035 69 84 1.0 7.0 0.00 0.00 0.00 39 1008.7
20260905184534 69 360 2.0 7.0 0.00 0.00 0.00 40 1009.0
20260905183030 68 360 1.0 6.0 0.00 0.00 0.00 42 1009.0
20260905181526 66 61 0.0 0.0 0.00 0.00 0.00 45 1009.3
20260905180025 62 360 0.0 6.0 0.00 0.00 0.00 48 1009.2
20260905174522 63 360 2.0 6.0 0.00 0.00 0.00 47 1009.3
20260905173021 64 360 4.0 7.0 0.00 0.00 0.00 46 1009.6
20260905171530 63 360 0.0 6.0 0.00 0.00 0.00 48 1009.8
20260905170014 63 51 0.0 5.0 0.00 0.00 0.00 50 1009.6
20260905164518 60 360 0.0 2.0 0.00 0.01 0.00 56 1009.9
20260905163007 58 71 0.0 0.0 0.00 0.01 0.00 56 1010.0
20260905161507 58 360 0.0 3.0 0.00 0.01 0.00 58 1010.1
20260905160013 58 360 3.0 5.0 0.00 0.01 0.00 56 1010.1
20260905154504 58 90 0.0 0.0 0.00 0.01 0.00 58 1010.0
20260905153100 56 360 0.0 3.0 0.00 0.01 0.00 61 1010.0
20260905151556 56 360 0.0 0.0 0.00 0.01 0.00 61 1010.0
20260905150056 54 360 0.0 4.0 0.00 0.01 0.00 64 1009.9
20260905144548 53 360 0.0 0.0 0.00 0.01 0.00 68 1009.9
20260905143043 50 173 0.0 0.0 0.00 0.01 0.00 75 1009.8
20260905141539 48 360 0.0 0.0 0.00 0.01 0.00 76 1009.6
20260905140036 47 360 0.0 0.0 0.00 0.01 0.00 77 1009.4
20260905134542 46 360 0.0 0.0 0.00 0.01 0.00 75 1009.2
20260905133028 46 360 0.0 0.0 0.00 0.01 0.00 75 1008.9
20260905131528 46 360 0.0 0.0 0.00 0.01 0.00 75 1008.9
20260905130026 45 134 0.0 0.0 0.00 0.01 0.00 80 1008.7
20260905124526 45 134 0.0 0.0 0.00 0.01 0.00 80 1008.8
20260905123024 45 134 0.0 0.0 0.00 0.01 0.00 80 1008.7
20260905121523 45 134 0.0 0.0 0.00 0.01 0.00 79 1008.7
20260905120025 45 134 0.0 0.0 0.00 0.01 0.00 78 1008.6
20260905114522 45 134 0.0 0.0 0.00 0.01 0.00 78 1008.6
20260905113020 45 134 0.0 0.0 0.00 0.01 0.00 77 1008.5
20260905111519 46 134 0.0 0.0 0.00 0.01 0.00 78 1008.6
20260905110019 46 134 0.0 1.0 0.00 0.01 0.00 77 1008.5
20260905104515 46 134 0.0 0.0 0.00 0.01 0.00 77 1008.4
20260905103013 46 134 0.0 0.0 0.00 0.01 0.00 76 1008.3
20260905101512 47 134 0.0 0.0 0.00 0.01 0.00 75 1008.4
20260905100009 47 134 0.0 0.0 0.00 0.01 0.00 74 1008.1
20260905094507 47 134 0.0 3.0 0.00 0.01 0.00 73 1008.1
20260905093005 48 134 0.0 0.0 0.00 0.01 0.00 73 1008.0
20260905091503 48 134 0.0 1.0 0.00 0.01 0.00 72 1007.8
20260905090005 48 134 0.0 3.0 0.00 0.01 0.00 71 1007.9
20260905084600 48 134 0.0 3.0 0.00 0.01 0.00 70 1007.9
20260905083057 49 134 0.0 0.0 0.00 0.01 0.00 70 1007.9
20260905081555 50 134 0.0 2.0 0.00 0.01 0.00 69 1007.9
20260905080054 50 134 0.0 2.0 0.00 0.01 0.00 68 1007.8
20260905074553 51 134 0.0 3.0 0.00 0.01 0.00 67 1007.6
20260905073051 51 134 1.0 6.0 0.00 0.01 0.00 66 1007.6
20260905071549 51 137 2.0 6.0 0.00 0.01 0.00 67 1007.7
20260905070046 50 159 1.0 4.0 0.00 0.01 0.00 69 1007.5
20260905064547 49 160 0.0 3.0 0.00 0.01 0.01 68 1007.3
20260905063041 49 160 0.0 4.0 0.00 0.01 0.01 69 1007.1
20260905061542 49 160 0.0 1.0 0.00 0.01 0.01 69 1006.9
20260905060035 50 160 0.0 2.0 0.00 0.01 0.01 68 1006.7
20260905054534 50 160 0.0 0.0 0.00 0.01 0.01 67 1006.6
20260905053031 51 160 0.0 0.0 0.00 0.01 0.01 66 1006.4
20260905051529 51 160 0.0 3.0 0.00 0.01 0.01 66 1006.2
20260905050026 52 160 0.0 3.0 0.00 0.01 0.01 65 1006.1
20260905044524 53 160 0.0 0.0 0.00 0.01 0.01 66 1006.0
20260905043020 53 160 0.0 3.0 0.00 0.01 0.01 65 1005.8
20260905041518 54 160 0.0 2.0 0.00 0.01 0.01 64 1005.7
20260905040015 54 160 0.0 4.0 0.00 0.01 0.01 64 1005.4
20260905034518 55 160 0.0 0.0 0.00 0.01 0.01 63 1005.2
20260905033011 56 160 0.0 5.0 0.00 0.01 0.01 61 1004.9
20260905031520 57 160 1.0 7.0 0.00 0.01 0.01 59 1004.8
20260905030014 57 161 0.0 5.0 0.00 0.01 0.01 57 1004.5
20260905024509 58 161 3.0 8.0 0.00 0.01 0.01 55 1004.4
20260905023008 59 245 2.0 7.0 0.00 0.01 0.01 52 1004.4
20260905021506 60 104 0.0 14.0 0.00 0.01 0.01 50 1004.3
20260905020007 60 44 4.0 15.0 0.00 0.01 0.01 50 1004.5
20260905014505 60 38 0.0 21.0 0.00 0.01 0.01 50 1004.6
20260905013004 61 32 3.0 13.0 0.00 0.01 0.01 49 1004.4
20260905011505 61 40 3.0 13.0 0.00 0.01 0.01 47 1004.4
20260905010004 62 13 4.0 12.0 0.00 0.01 0.01 47 1004.5
20260905004503 63 79 1.0 5.0 0.00 0.01 0.01 48 1004.2
20260905003003 63 35 1.0 9.0 0.00 0.01 0.01 46 1004.4
20260905001501 63 38 2.0 12.0 0.00 0.01 0.01 46 1004.5
20260905000003 63 22 9.0 15.0 0.00 0.01 0.01 45 1004.6
20260904234501 64 28 3.0 14.0 0.00 0.01 0.01 45 1004.6
20260904233100 64 13 4.0 13.0 0.00 0.01 0.01 45 1004.5
20260904231601 64 40 0.0 6.0 0.00 0.01 0.01 48 1004.4
20260904230058 65 95 1.0 12.0 0.00 0.01 0.01 46 1004.2
20260904224557 64 27 1.0 14.0 0.00 0.01 0.01 44 1004.3
20260904223056 64 26 0.0 13.0 0.00 0.01 0.01 44 1004.3
20260904221557 64 168 1.0 4.0 0.00 0.01 0.01 45 1004.2
20260904220056 64 177 1.0 9.0 0.00 0.01 0.01 44 1004.2
20260904214552 64 36 0.0 8.0 0.00 0.01 0.01 49 1004.2
20260904213050 64 140 0.0 4.0 0.00 0.01 0.01 50 1004.3
20260904211549 64 148 0.0 4.0 0.00 0.01 0.01 52 1004.3
20260904210048 63 155 3.0 7.0 0.00 0.01 0.01 46 1004.2
20260904204545 63 333 2.0 6.0 0.00 0.01 0.01 51 1004.3
20260904203043 62 350 0.0 12.0 0.00 0.01 0.01 52 1004.3
20260904201541 62 39 3.0 8.0 0.00 0.01 0.01 52 1004.3